KY4JDC Weather Reports


time (UTC)temp
C
wind
direction
speed
KPH
gust
KPH
rain 1hr
cm
rain 24hr
cm
rain mn
cm
humidity
%
barometer
mb
20260507155645 16 340 1.6 3.2 0.00 0.00 0.00 36 1019.8
20260507155142 16 13 4.8 9.7 0.00 0.00 0.00 38 1019.8
20260507154639 16 94 0.0 1.6 0.00 0.00 0.00 39 1019.8
20260507154137 16 43 1.6 4.8 0.00 0.00 0.00 36 1019.7
20260507153633 16 114 1.6 1.6 0.00 0.00 0.00 42 1019.6
20260507153129 16 129 1.6 1.6 0.00 0.00 0.00 44 1019.9
20260507152626 16 40 1.6 3.2 0.00 0.00 0.00 45 1019.8
20260507152121 15 65 0.0 1.6 0.00 0.00 0.00 43 1019.8
20260507151618 15 114 0.0 0.0 0.00 0.00 0.00 46 1019.9
20260507151115 15 135 1.6 1.6 0.00 0.00 0.00 43 1019.8
20260507150612 15 45 3.2 3.2 0.00 0.00 0.00 42 1020.0
20260507150109 15 92 0.0 1.6 0.00 0.00 0.00 43 1019.8
20260507145604 15 292 1.6 1.6 0.00 0.00 0.00 43 1019.9
20260507145102 15 58 0.0 1.6 0.00 0.00 0.00 44 1020.0
20260507144558 15 76 0.0 3.2 0.00 0.00 0.00 43 1019.8
20260507144056 15 330 0.0 0.0 0.00 0.00 0.00 48 1020.0
20260507143552 15 295 3.2 3.2 0.00 0.00 0.00 45 1020.1
20260507143050 15 127 0.0 1.6 0.00 0.00 0.00 49 1019.8
20260507142550 14 77 0.0 0.0 0.00 0.00 0.00 50 1019.9
20260507142047 13 141 3.2 1.6 0.00 0.00 0.00 50 1020.0
20260507141543 13 126 1.6 3.2 0.00 0.00 0.00 51 1019.8
20260507141040 13 69 0.0 1.6 0.00 0.00 0.00 55 1019.9
20260507140537 13 83 0.0 0.0 0.00 0.00 0.00 56 1019.8
20260507140035 13 99 0.0 1.6 0.00 0.00 0.00 54 1019.9
20260507135531 13 44 1.6 1.6 0.00 0.00 0.00 51 1019.8
20260507135029 12 57 0.0 1.6 0.00 0.00 0.00 54 1019.6
20260507134525 12 48 0.0 1.6 0.00 0.00 0.00 56 1019.9
20260507134021 12 53 0.0 1.6 0.00 0.00 0.00 56 1019.9
20260507133517 11 65 0.0 3.2 0.00 0.00 0.00 57 1019.8
20260507133016 11 43 1.6 3.2 0.00 0.00 0.00 58 1019.6
20260507132511 11 43 0.0 4.8 0.00 0.00 0.00 60 1019.8
20260507132008 11 47 1.6 1.6 0.00 0.00 0.00 59 1019.7
20260507131505 11 42 0.0 3.2 0.00 0.00 0.00 60 1019.8
20260507131002 11 55 0.0 1.6 0.00 0.00 0.00 64 1019.7
20260507130459 10 62 0.0 1.6 0.00 0.00 0.00 67 1019.9
20260507125957 10 72 0.0 1.6 0.00 0.00 0.00 67 1019.8
20260507125455 10 37 1.6 1.6 0.00 0.00 0.00 66 1019.9
20260507124952 10 51 0.0 1.6 0.00 0.00 0.00 72 1019.9
20260507124448 10 46 0.0 1.6 0.00 0.00 0.00 71 1019.5
20260507123947 9 47 0.0 0.0 0.00 0.00 0.00 74 1019.7
20260507123444 9 47 0.0 0.0 0.00 0.00 0.00 75 1019.7
20260507122940 9 46 0.0 0.0 0.00 0.00 0.00 76 1019.6
20260507122436 8 46 0.0 0.0 0.00 0.00 0.00 78 1019.6
20260507121932 8 46 1.6 1.6 0.00 0.00 0.00 78 1019.6
20260507121427 8 46 0.0 1.6 0.00 0.00 0.00 80 1019.4
20260507120924 7 46 0.0 1.6 0.00 0.00 0.00 82 1019.3
20260507120421 7 46 0.0 0.0 0.00 0.00 0.00 84 1019.5
20260507115917 7 46 0.0 0.0 0.00 0.00 0.00 87 1019.1
20260507115413 7 46 0.0 0.0 0.00 0.00 0.00 90 1019.0
20260507114909 6 46 0.0 0.0 0.00 0.00 0.00 92 1018.9
20260507114406 6 46 0.0 0.0 0.00 0.00 0.00 93 1019.1
20260507113903 6 46 0.0 0.0 0.00 0.00 0.00 93 1018.9
20260507113400 6 46 0.0 0.0 0.00 0.00 0.00 93 1019.0
20260507112857 6 46 0.0 0.0 0.00 0.00 0.00 93 1018.8
20260507112355 6 46 0.0 0.0 0.00 0.00 0.00 93 1019.1
20260507111852 6 46 0.0 0.0 0.00 0.00 0.00 93 1019.0
20260507111349 6 46 0.0 0.0 0.00 0.00 0.00 93 1019.1
20260507110845 6 46 0.0 0.0 0.00 0.00 0.00 93 1018.8
20260507110341 6 46 0.0 0.0 0.00 0.00 0.00 93 1018.9
20260507105838 6 46 0.0 0.0 0.00 0.00 0.00 93 1019.1
20260507105335 6 46 0.0 0.0 0.00 0.00 0.00 93 1018.9
20260507104832 6 46 0.0 0.0 0.00 0.00 0.00 93 1018.9
20260507104328 6 46 0.0 0.0 0.00 0.00 0.00 93 1018.8
20260507103824 6 46 0.0 0.0 0.00 0.00 0.00 92 1018.9
20260507103321 6 46 0.0 0.0 0.00 0.00 0.00 92 1018.9
20260507102817 6 46 0.0 0.0 0.00 0.00 0.00 92 1018.8
20260507102314 6 46 0.0 0.0 0.00 0.00 0.00 92 1018.9
20260507101810 6 46 0.0 0.0 0.00 0.00 0.00 92 1018.8
20260507101305 6 46 0.0 0.0 0.00 0.00 0.00 91 1019.0
20260507100802 7 46 0.0 0.0 0.00 0.00 0.00 91 1018.9
20260507100300 7 46 0.0 0.0 0.00 0.00 0.00 91 1019.0
20260507095758 7 46 0.0 0.0 0.00 0.00 0.00 91 1018.9
20260507095254 7 46 0.0 0.0 0.00 0.00 0.00 91 1018.7
20260507094751 7 46 0.0 1.6 0.00 0.00 0.00 91 1018.7
20260507094248 7 46 0.0 0.0 0.00 0.00 0.00 91 1018.7
20260507093745 7 46 0.0 0.0 0.00 0.00 0.00 91 1018.5
20260507093244 7 46 0.0 0.0 0.00 0.00 0.00 91 1018.7
20260507092741 7 46 0.0 0.0 0.00 0.00 0.00 90 1018.7
20260507092237 7 46 0.0 0.0 0.00 0.00 0.00 90 1018.5
20260507091734 7 46 0.0 0.0 0.00 0.00 0.00 90 1018.4
20260507091230 7 46 0.0 0.0 0.00 0.00 0.00 90 1018.4
20260507090726 7 46 0.0 0.0 0.00 0.00 0.00 89 1018.3
20260507090222 7 46 0.0 0.0 0.00 0.00 0.00 89 1018.4
20260507085719 7 46 0.0 0.0 0.00 0.00 0.00 88 1018.4
20260507085217 7 46 0.0 0.0 0.00 0.00 0.00 88 1018.2
20260507084713 7 46 0.0 0.0 0.00 0.00 0.00 88 1018.3
20260507084210 7 46 0.0 0.0 0.00 0.00 0.00 88 1018.2
20260507083707 7 46 0.0 0.0 0.00 0.00 0.00 88 1018.0
20260507083204 7 46 0.0 0.0 0.00 0.00 0.00 88 1018.0
20260507082700 7 46 0.0 0.0 0.00 0.00 0.00 88 1018.0
20260507082156 8 46 0.0 0.0 0.00 0.00 0.00 88 1018.1
20260507081653 8 46 0.0 0.0 0.00 0.00 0.00 87 1017.9
20260507081149 8 46 0.0 0.0 0.00 0.00 0.00 87 1018.1
20260507080646 8 46 0.0 0.0 0.00 0.00 0.00 87 1017.9
20260507080142 8 46 0.0 0.0 0.00 0.00 0.00 87 1017.9
20260507075637 8 46 0.0 0.0 0.00 0.00 0.00 87 1018.1
20260507075133 8 46 0.0 0.0 0.00 0.00 0.00 87 1017.8
20260507074630 8 46 0.0 0.0 0.00 0.00 0.00 87 1018.1
20260507074129 8 46 0.0 0.0 0.00 0.00 0.00 88 1017.9
20260507073624 8 46 0.0 0.0 0.00 0.00 0.00 89 1018.0
20260507073121 8 46 0.0 0.0 0.00 0.00 0.00 89 1017.8
20260507072619 8 46 0.0 0.0 0.00 0.00 0.00 89 1017.9
20260507072116 8 46 0.0 0.0 0.00 0.00 0.00 89 1018.1
20260507071613 8 46 0.0 0.0 0.00 0.00 0.00 89 1018.1
20260507071109 8 46 0.0 0.0 0.00 0.00 0.00 88 1017.8
20260507070607 8 46 0.0 0.0 0.00 0.00 0.00 88 1018.1
20260507070104 8 46 0.0 0.0 0.00 0.00 0.00 88 1018.1
20260507065600 8 46 0.0 0.0 0.00 0.00 0.00 88 1018.2
20260507065057 8 46 0.0 0.0 0.00 0.00 0.00 88 1018.0
20260507064555 8 46 0.0 0.0 0.00 0.00 0.00 87 1018.0
20260507064053 9 46 0.0 0.0 0.00 0.00 0.00 87 1018.1
20260507063550 9 46 0.0 0.0 0.00 0.00 0.00 87 1018.2
20260507063048 9 46 0.0 0.0 0.00 0.00 0.00 85 1018.0
20260507062544 9 46 0.0 0.0 0.00 0.00 0.00 85 1018.2
20260507062042 9 46 0.0 0.0 0.00 0.00 0.00 85 1018.4
20260507061539 9 46 0.0 0.0 0.00 0.00 0.00 85 1018.2
20260507061037 9 46 0.0 0.0 0.00 0.00 0.00 85 1018.3
20260507060535 10 46 0.0 0.0 0.00 0.00 0.00 86 1018.4
20260507060031 10 46 0.0 0.0 0.00 0.00 0.00 85 1018.5
20260507055531 10 46 0.0 0.0 0.00 0.00 0.00 84 1018.4
20260507055028 10 46 0.0 0.0 0.00 0.00 0.00 85 1018.3
20260507054524 10 46 0.0 0.0 0.00 0.00 0.00 85 1018.2
20260507054021 10 46 0.0 0.0 0.00 0.00 0.00 83 1018.2
20260507053519 10 46 0.0 0.0 0.00 0.00 0.00 82 1018.3
20260507053018 10 46 0.0 0.0 0.00 0.00 0.00 81 1018.3
20260507052515 10 46 0.0 0.0 0.00 0.00 0.00 80 1018.2
20260507052011 10 46 0.0 0.0 0.00 0.00 0.00 80 1018.0
20260507051509 10 46 0.0 0.0 0.00 0.00 0.00 80 1018.1
20260507051006 10 46 0.0 0.0 0.00 0.00 0.00 79 1018.0
20260507050502 10 46 0.0 0.0 0.00 0.00 0.00 79 1018.0
20260507045959 11 46 0.0 0.0 0.00 0.84 0.84 79 1018.1
20260507045455 11 46 0.0 0.0 0.00 0.84 0.84 80 1018.4
20260507044953 11 46 0.0 0.0 0.00 0.84 0.84 80 1018.1
20260507044450 11 46 0.0 0.0 0.00 0.84 0.84 79 1018.4
20260507043946 11 46 0.0 0.0 0.00 0.84 0.84 78 1018.2
20260507043442 11 46 0.0 0.0 0.00 0.84 0.84 78 1018.3
20260507042938 11 46 0.0 0.0 0.00 0.84 0.84 78 1018.4
20260507042435 11 46 0.0 0.0 0.00 0.84 0.84 77 1018.1
20260507041931 11 46 0.0 0.0 0.00 0.84 0.84 77 1018.1
20260507041428 11 46 0.0 0.0 0.00 0.84 0.84 77 1018.3
20260507040925 11 46 0.0 1.6 0.00 0.84 0.84 77 1018.2
20260507040421 11 47 0.0 0.0 0.00 0.84 0.84 77 1017.8
20260507035917 11 46 0.0 0.0 0.00 0.84 0.84 77 1017.8
20260507035413 12 46 0.0 0.0 0.00 0.84 0.84 73 1017.8
20260507034910 12 46 0.0 0.0 0.00 0.84 0.84 73 1018.1
20260507034407 12 47 0.0 0.0 0.00 0.84 0.84 73 1017.8
20260507033905 12 47 0.0 0.0 0.00 0.84 0.84 73 1017.9
20260507033403 12 47 0.0 0.0 0.00 0.84 0.84 74 1017.7
20260507032900 12 47 0.0 0.0 0.00 0.84 0.84 74 1017.9
20260507032356 12 46 0.0 0.0 0.00 0.84 0.84 73 1017.8
20260507031853 12 47 0.0 0.0 0.00 0.84 0.84 74 1017.8
20260507031349 12 46 0.0 0.0 0.00 0.84 0.84 73 1017.9
20260507030846 12 47 0.0 0.0 0.00 0.84 0.84 73 1017.8
20260507030343 12 47 0.0 0.0 0.00 0.84 0.84 74 1017.7
20260507025840 12 46 0.0 0.0 0.00 0.84 0.84 74 1017.6
20260507025338 12 46 0.0 0.0 0.00 0.84 0.84 74 1017.4
20260507024835 12 47 0.0 0.0 0.00 0.84 0.84 76 1017.5
20260507024332 12 47 0.0 0.0 0.00 0.84 0.84 78 1017.3
20260507023828 12 47 0.0 1.6 0.00 0.84 0.84 79 1017.8
20260507023325 12 47 0.0 0.0 0.00 0.84 0.84 79 1017.8
20260507022822 12 47 0.0 0.0 0.00 0.84 0.84 79 1018.0
20260507022319 12 47 0.0 0.0 0.00 0.84 0.84 79 1018.0
20260507021815 12 47 0.0 0.0 0.00 0.84 0.84 79 1018.3
20260507021311 12 47 0.0 0.0 0.00 0.84 0.84 80 1018.3
20260507020809 12 47 0.0 0.0 0.00 0.84 0.84 80 1018.1
20260507020305 12 47 0.0 0.0 0.00 0.84 0.84 81 1018.2
20260507015802 12 47 0.0 0.0 0.00 0.84 0.84 79 1017.8
20260507015300 12 47 0.0 0.0 0.00 0.84 0.84 79 1017.4
20260507014756 12 47 0.0 0.0 0.00 0.84 0.84 80 1017.8
20260507014253 12 47 0.0 0.0 0.00 0.84 0.84 80 1017.6
20260507013749 12 47 0.0 0.0 0.00 0.84 0.84 79 1017.7
20260507013247 12 47 0.0 0.0 0.00 0.84 0.84 80 1017.5
20260507012744 12 47 0.0 0.0 0.00 0.84 0.84 80 1017.5
20260507012245 12 47 0.0 0.0 0.00 0.84 0.84 77 1017.4
20260507011743 12 47 0.0 0.0 0.00 0.84 0.84 75 1017.6
20260507011239 12 47 0.0 0.0 0.00 0.84 0.84 75 1018.0
20260507010738 13 47 0.0 0.0 0.00 0.84 0.84 74 1017.6
20260507010235 13 47 0.0 0.0 0.00 0.84 0.84 72 1017.8
20260507005732 13 47 0.0 0.0 0.00 0.84 0.84 72 1017.8
20260507005229 13 47 0.0 0.0 0.00 0.84 0.84 72 1017.3
20260507004725 13 47 0.0 0.0 0.00 0.84 0.84 71 1017.4
20260507004223 13 47 0.0 0.0 0.00 0.84 0.84 67 1017.2
20260507003719 13 46 0.0 0.0 0.00 0.84 0.84 65 1017.4
20260507003214 13 46 0.0 0.0 0.00 0.84 0.84 64 1017.0
20260507002711 13 46 0.0 0.0 0.00 0.84 0.84 64 1016.9
20260507002207 13 46 0.0 0.0 0.00 0.84 0.84 62 1016.9
20260507001703 14 46 0.0 0.0 0.00 0.84 0.84 62 1016.7
20260507001201 14 46 0.0 0.0 0.00 0.84 0.84 63 1016.6
20260507000657 14 49 1.6 1.6 0.00 0.84 0.84 62 1016.4
20260507000152 14 49 0.0 0.0 0.00 0.84 0.84 62 1016.3
20260506235650 14 49 0.0 0.0 0.00 0.84 0.84 63 1016.4
20260506235145 14 49 0.0 0.0 0.00 0.84 0.84 63 1016.4
20260506234643 14 40 0.0 1.6 0.00 0.84 0.84 60 1015.9
20260506234140 14 40 0.0 0.0 0.00 0.84 0.84 60 1016.0
20260506233637 14 41 0.0 1.6 0.00 0.84 0.84 61 1015.9
20260506233134 15 40 3.2 3.2 0.00 0.84 0.84 58 1015.9
20260506232630 15 63 0.0 1.6 0.00 0.84 0.84 58 1016.0
20260506232125 15 49 0.0 1.6 0.00 0.84 0.84 58 1015.9
20260506231623 15 47 1.6 3.2 0.00 0.84 0.84 55 1016.0
20260506231121 15 44 1.6 1.6 0.00 0.84 0.84 56 1016.0
20260506230618 15 42 1.6 1.6 0.00 0.84 0.84 56 1016.1
20260506230115 15 40 1.6 3.2 0.00 0.84 0.84 55 1016.0
20260506225611 15 41 0.0 0.0 0.00 0.84 0.84 59 1016.1
20260506225108 15 280 0.0 1.6 0.00 0.84 0.84 58 1016.3
20260506224604 15 342 1.6 3.2 0.00 0.84 0.84 55 1016.7
20260506224101 15 48 1.6 1.6 0.00 0.84 0.84 54 1016.4
20260506223557 15 78 0.0 1.6 0.00 0.84 0.84 57 1016.5
20260506223053 15 71 0.0 1.6 0.00 0.84 0.84 54 1016.5
20260506222550 15 124 1.6 1.6 0.00 0.84 0.84 54 1016.7
20260506222047 15 42 1.6 1.6 0.00 0.84 0.84 55 1016.5
20260506221544 14 51 0.0 1.6 0.00 0.84 0.84 56 1016.5
20260506221042 14 54 0.0 1.6 0.00 0.84 0.84 57 1016.4
20260506220538 14 47 1.6 1.6 0.00 0.84 0.84 57 1016.4
20260506220034 14 47 1.6 1.6 0.00 0.84 0.84 55 1016.6
20260506215531 14 53 0.0 0.0 0.00 0.84 0.84 59 1016.9
20260506215026 14 53 0.0 1.6 0.00 0.84 0.84 55 1017.0
20260506214524 14 42 1.6 1.6 0.00 0.84 0.84 56 1016.8
20260506214021 14 66 1.6 1.6 0.00 0.84 0.84 55 1017.2
20260506213519 14 74 0.0 1.6 0.00 0.84 0.84 56 1016.9
20260506213015 14 62 0.0 1.6 0.00 0.84 0.84 59 1016.9
20260506212512 14 87 0.0 1.6 0.00 0.84 0.84 60 1017.1
20260506212007 14 29 1.6 3.2 0.00 0.84 0.84 59 1017.3
20260506211503 15 61 1.6 1.6 0.00 0.84 0.84 57 1017.1
20260506211001 15 20 3.2 6.4 0.00 0.84 0.84 58 1017.2
20260506210457 15 287 0.0 1.6 0.00 0.84 0.84 59 1017.4
20260506205954 14 13 1.6 4.8 0.00 0.84 0.84 58 1017.4
20260506205449 14 19 0.0 3.2 0.00 0.84 0.84 60 1017.2
20260506204946 14 33 1.6 1.6 0.00 0.84 0.84 61 1017.0
20260506204444 14 63 1.6 1.6 0.00 0.84 0.84 59 1016.6
20260506203941 15 101 0.0 1.6 0.00 0.84 0.84 61 1017.5
20260506203438 15 117 0.0 3.2 0.00 0.84 0.84 60 1017.5
20260506202935 15 19 0.0 1.6 0.00 0.84 0.84 61 1017.3
20260506202432 15 46 0.0 3.2 0.00 0.84 0.84 57 1016.5
20260506201929 15 42 0.0 3.2 0.00 0.84 0.84 60 1016.2
20260506201426 15 328 1.6 1.6 0.00 0.84 0.84 59 1016.4
20260506200923 15 27 1.6 3.2 0.00 0.84 0.84 60 1016.8
20260506200419 14 47 1.6 1.6 0.00 0.84 0.84 60 1016.9
20260506195916 14 278 3.2 3.2 0.00 0.84 0.84 60 1016.9
20260506195413 14 69 0.0 0.0 0.00 0.84 0.84 60 1017.2
20260506194909 14 60 1.6 1.6 0.00 0.84 0.84 60 1017.5
20260506194406 14 87 0.0 1.6 0.00 0.84 0.84 59 1017.6
20260506193903 15 25 3.2 6.4 0.00 0.84 0.84 58 1017.6
20260506193400 15 7 3.2 6.4 0.00 0.84 0.84 57 1017.9
20260506192856 15 68 0.0 1.6 0.00 0.84 0.84 61 1017.7
20260506192353 15 58 0.0 0.0 0.00 0.84 0.84 61 1017.3
20260506191851 15 45 0.0 1.6 0.00 0.84 0.84 62 1017.3
20260506191347 15 11 1.6 4.8 0.00 0.84 0.84 60 1017.3
20260506190844 15 118 0.0 6.4 0.00 0.84 0.84 62 1017.2
20260506190340 15 247 1.6 3.2 0.00 0.84 0.84 60 1017.2
20260506185837 15 84 0.0 1.6 0.00 0.84 0.84 59 1017.1
20260506185334 15 97 0.0 1.6 0.00 0.84 0.84 63 1016.9
20260506184831 15 47 0.0 1.6 0.00 0.84 0.84 62 1016.9
20260506184328 15 44 0.0 3.2 0.00 0.84 0.84 58 1017.0
20260506183826 15 109 1.6 1.6 0.00 0.84 0.84 59 1017.2
20260506183320 16 85 1.6 3.2 0.00 0.84 0.84 61 1017.3
20260506182818 15 29 3.2 3.2 0.00 0.84 0.84 62 1016.8
20260506182315 15 49 3.2 3.2 0.00 0.84 0.84 56 1016.9
20260506181813 15 0 1.6 4.8 0.00 0.84 0.84 59 1017.0
20260506181310 15 56 1.6 3.2 0.00 0.84 0.84 58 1016.8
20260506180808 15 43 0.0 6.4 0.00 0.84 0.84 60 1017.3
20260506180303 15 111 0.0 1.6 0.00 0.84 0.84 66 1017.1
20260506175800 15 50 1.6 3.2 0.00 0.84 0.84 61 1017.3
20260506175257 14 45 0.0 3.2 0.00 0.84 0.84 66 1017.2
20260506174754 14 49 0.0 1.6 0.00 0.84 0.84 64 1017.2
20260506174251 14 42 1.6 1.6 0.00 0.84 0.84 60 1017.5
20260506173749 15 86 1.6 4.8 0.00 0.84 0.84 60 1017.3
20260506173246 15 254 1.6 1.6 0.00 0.84 0.84 62 1017.3
20260506172742 15 152 0.0 1.6 0.00 0.84 0.84 71 1017.1
20260506172239 14 64 0.0 4.8 0.00 0.84 0.84 65 1017.1
20260506171737 13 111 0.0 1.6 0.00 0.84 0.84 69 1017.2
20260506171234 13 95 1.6 3.2 0.00 0.84 0.84 66 1017.1
20260506170731 14 31 3.2 11.3 0.00 0.84 0.84 66 1017.1
20260506170227 13 119 0.0 1.6 0.00 0.84 0.84 70 1017.0
20260506165726 13 50 1.6 4.8 0.00 0.84 0.84 66 1017.0
20260506165223 13 48 1.6 1.6 0.00 0.84 0.84 66 1016.9
20260506164720 14 46 3.2 11.3 0.00 0.84 0.84 65 1016.8
20260506164217 14 110 1.6 3.2 0.00 0.84 0.84 68 1017.3
20260506163714 13 179 4.8 6.4 0.00 0.84 0.84 69 1017.2
20260506163208 13 115 0.0 0.0 0.00 0.84 0.84 75 1017.3
20260506162705 13 36 1.6 3.2 0.00 0.84 0.84 69 1017.2
20260506162202 13 57 0.0 1.6 0.00 0.84 0.84 68 1017.2
20260506161659 13 42 3.2 3.2 0.00 0.84 0.84 71 1017.4
20260506161156 13 85 3.2 3.2 0.00 0.84 0.84 72 1017.2
20260506160654 13 51 1.6 3.2 0.00 0.84 0.84 69 1017.2
20260506160151 13 67 1.6 3.2 0.00 0.84 0.84 71 1017.4